OE1TRI Weather Reports


Display with metric or nautical units.
time (UTC)temp
F
wind
direction
speed
MPH
gust
MPH
rain 1hr
in
rain 24hr
in
rain mn
in
humidity
%
barometer
mb
20260507153004 68 23 3.0 6.0 0.00 0.00 0.00 48 1018.3
20260507152005 68 216 3.0 7.0 0.00 0.00 0.00 48 1018.3
20260507151005 68 186 5.0 7.0 0.00 0.00 0.00 48 1018.3
20260507150005 69 191 3.0 5.0 0.00 0.00 0.00 46 1018.3
20260507145005 70 192 3.0 6.0 0.00 0.00 0.00 44 1017.9
20260507143004 70 92 2.0 3.0 0.00 0.00 0.00 44 1018.3
20260507142005 69 149 2.0 5.0 0.00 0.00 0.00 44 1018.3
20260507141006 71 110 3.0 5.0 0.00 0.00 0.00 44 1018.3
20260507134004 71 3 1.0 8.0 0.00 0.00 0.00 41 1018.1
20260507132005 72 157 2.0 3.0 0.00 0.00 0.00 41 1018.3
20260507131005 72 77 1.0 3.0 0.00 0.00 0.00 42 1018.3
20260507130005 71 122 2.0 3.0 0.00 0.00 0.00 43 1018.3
20260507124005 70 294 3.0 5.0 0.00 0.00 0.00 45 1018.6
20260507123005 70 204 2.0 6.0 0.00 0.00 0.00 45 1018.6
20260507121005 69 332 4.0 7.0 0.00 0.00 0.00 46 1018.6
20260507113005 70 134 1.0 8.0 0.00 0.00 0.00 45 1019.0
20260507112005 70 336 6.0 8.0 0.00 0.00 0.00 44 1019.0
20260507111005 69 325 2.0 8.0 0.00 0.00 0.00 47 1019.0
20260507110005 68 194 2.0 2.0 0.00 0.00 0.00 48 1019.3
20260507105004 66 103 2.0 6.0 0.00 0.00 0.00 50 1019.3
20260507104005 66 209 2.0 6.0 0.00 0.00 0.00 51 1019.6
20260507103004 67 169 1.0 2.0 0.00 0.00 0.00 51 1019.6
20260507102006 66 35 2.0 3.0 0.00 0.00 0.00 53 1019.6
20260507101004 66 236 2.0 3.0 0.00 0.00 0.00 50 1019.6
20260507100005 66 124 1.0 3.0 0.00 0.00 0.00 50 1020.0
20260507093005 66 283 2.0 3.0 0.00 0.00 0.00 50 1019.3
20260507092004 64 284 1.0 3.0 0.00 0.00 0.00 53 1019.3
20260507091005 64 141 2.0 3.0 0.00 0.00 0.00 54 1019.3
20260507090006 64 177 3.0 8.0 0.00 0.00 0.00 53 1019.0
20260507085005 64 324 6.0 8.0 0.00 0.00 0.00 54 1019.3
20260507084005 64 251 2.0 5.0 0.00 0.00 0.00 53 1019.0
20260507082004 63 103 2.0 7.0 0.00 0.00 0.00 55 1018.6
20260507081005 63 239 5.0 7.0 0.00 0.00 0.00 55 1019.0
20260507080005 62 45 1.0 3.0 0.00 0.00 0.00 56 1018.6
20260507075004 62 102 2.0 3.0 0.00 0.00 0.00 57 1018.6
20260507074004 62 91 1.0 2.0 0.00 0.00 0.00 57 1018.3
20260507073004 62 58 1.0 9.0 0.00 0.00 0.00 59 1018.3
20260507072005 60 238 6.0 9.0 0.00 0.00 0.00 61 1017.9
20260507071005 60 238 6.0 9.0 0.00 0.00 0.00 61 1018.0
20260507070009 60 269 1.0 7.0 0.00 0.00 0.00 62 1017.9
20260507065004 60 297 3.0 7.0 0.00 0.00 0.00 62 1017.8
20260507064005 59 75 3.0 8.0 0.00 0.00 0.00 62 1017.6
20260507063005 59 272 5.0 12.0 0.00 0.00 0.00 62 1017.6
20260507060005 59 297 4.0 16.0 0.00 0.00 0.00 63 1017.6
20260507055005 59 17 7.0 16.0 0.00 0.00 0.00 63 1017.3
20260507053005 59 272 3.0 6.0 0.00 0.00 0.00 64 1016.9
20260507051004 58 4 7.0 17.0 0.00 0.00 0.00 64 1016.9
20260507050005 58 238 7.0 13.0 0.00 0.00 0.00 64 1016.6
20260507045005 58 236 1.0 7.0 0.00 0.00 0.00 64 1016.6
20260507044005 58 14 5.0 10.0 0.00 0.00 0.00 65 1016.6
20260507042005 58 315 7.0 9.0 0.00 0.00 0.00 65 1015.9
20260507040005 58 332 6.0 13.0 0.00 0.00 0.00 65 1015.9
20260507035004 58 264 3.0 12.0 0.00 0.00 0.00 65 1015.9
20260507034005 58 302 8.0 14.0 0.00 0.00 0.00 65 1015.6
20260507033005 58 336 3.0 13.0 0.00 0.00 0.00 65 1016.3
20260507032004 58 350 7.0 12.0 0.00 0.00 0.00 65 1015.9
20260507031005 59 24 6.0 10.0 0.00 0.00 0.00 65 1015.9
20260507030005 59 296 7.0 10.0 0.00 0.00 0.00 65 1015.9
20260507024005 59 218 7.0 14.0 0.00 0.00 0.00 65 1015.6
20260507022005 59 288 5.0 8.0 0.00 0.00 0.00 66 1015.6
20260507020005 60 261 6.0 8.0 0.00 0.00 0.00 67 1015.6
20260507014004 60 177 5.0 7.0 0.00 0.00 0.00 69 1015.2
20260507013005 60 81 3.0 5.0 0.00 0.00 0.00 68 1015.6
20260507012005 60 275 2.0 5.0 0.00 0.00 0.00 68 1015.6
20260507011004 60 220 2.0 8.0 0.00 0.00 0.00 68 1015.2
20260507003004 61 13 3.0 7.0 0.00 0.00 0.00 67 1014.9
20260507002004 61 335 5.0 15.0 0.00 0.00 0.00 67 1014.9
20260507000005 62 32 5.0 9.0 0.00 0.00 0.00 67 1014.6
20260506233005 62 264 3.0 6.0 0.00 0.00 0.00 71 1014.6
20260506232004 62 258 6.0 12.0 0.00 0.00 0.00 71 1014.2
20260506231004 62 259 6.0 14.0 0.00 0.00 0.00 71 1014.6
20260506224005 64 321 3.0 8.0 0.00 0.00 0.00 64 1013.9
20260506223005 64 267 4.0 9.0 0.00 0.00 0.00 64 1013.5
20260506222005 64 24 3.0 8.0 0.00 0.00 0.00 63 1013.2
20260506221005 64 242 3.0 5.0 0.00 0.00 0.00 62 1012.9
20260506215006 65 82 0.0 3.0 0.00 0.00 0.00 63 1012.5
20260506212005 65 192 2.0 7.0 0.00 0.00 0.00 61 1012.2
20260506211005 66 225 5.0 8.0 0.00 0.00 0.00 61 1011.9
20260506210005 66 185 6.0 8.0 0.00 0.00 0.00 61 1011.5
20260506205005 66 176 5.0 10.0 0.00 0.00 0.00 60 1011.9
20260506204005 67 184 7.0 15.0 0.00 0.00 0.00 60 1011.9
20260506201005 67 107 5.0 14.0 0.00 0.00 0.00 59 1011.2
20260506200005 67 117 8.0 14.0 0.00 0.00 0.00 58 1011.5
20260506195005 68 158 3.0 8.0 0.00 0.00 0.00 58 1011.2
20260506194004 68 354 7.0 10.0 0.00 0.00 0.00 57 1011.2
20260506193005 68 203 6.0 9.0 0.00 0.00 0.00 57 1011.2
20260506192005 68 90 2.0 10.0 0.00 0.00 0.00 57 1010.8
20260506190005 69 267 8.0 10.0 0.00 0.00 0.00 56 1010.8
20260506185005 69 172 3.0 9.0 0.00 0.00 0.00 55 1010.8
20260506184005 69 126 6.0 9.0 0.00 0.00 0.00 55 1010.5
20260506183005 70 209 5.0 10.0 0.00 0.00 0.00 54 1010.5
20260506182005 70 108 6.0 10.0 0.00 0.00 0.00 54 1010.5
20260506181005 71 258 3.0 8.0 0.00 0.00 0.00 53 1010.2
20260506180005 71 131 3.0 7.0 0.00 0.00 0.00 52 1010.5
20260506174005 72 130 3.0 15.0 0.00 0.00 0.00 52 1010.2
20260506173005 72 80 9.0 15.0 0.00 0.00 0.00 51 1010.2
20260506172005 73 74 8.0 15.0 0.00 0.00 0.00 51 1010.2
20260506171004 73 129 6.0 14.0 0.00 0.00 0.00 50 1010.2
20260506170004 73 98 6.0 9.0 0.00 0.00 0.00 50 1010.2
20260506165005 74 144 4.0 8.0 0.00 0.00 0.00 48 1010.2
20260506162005 74 64 10.0 16.0 0.00 0.00 0.00 47 1010.5